Location: Recife
(8.0585°S, 34.8848°W)
Time: 10:30:34
(UTC-03:00)

Transit 2A Rocket - Pass Details

Date: 22 April 2026
Orbit: 587 x 895 km, 66.7° (Epoch: 14 May)

Event Time Altitude Azimuth Distance (km) Brightness Sun altitude
Rises 21:25:23 0° 190° (S) 3,436 - -62.0°
Reaches altitude 10° 21:27:56 10° 184° (S) 2,525 - -62.6°
Maximum altitude 21:33:36 48° 111° (ESE) 1,152 - -64.0°
Drops below altitude 10° 21:39:20 10° 38° (NE) 2,552 - -65.3°
Sets 21:41:54 0° 32° (NNE) 3,476 - -66.0°
